timestamp,surface_pressure_avg,surface_temp_avg,battery_voltage,lat,long
2020-08-27 00:09:01+00:00,217.8931,18.5,12.65,47.84626,-54.09684
2020-08-27 00:19:01+00:00,216.4448,18.5,12.65,47.84626,-54.09684
2020-08-27 00:29:01+00:00,220.8131,18.5,12.65,47.84626,-54.09684
2020-08-27 00:39:01+00:00,226.2948,18.5,12.65,47.84626,-54.09684
2020-08-27 00:49:01+00:00,227.6547,18.5,12.65,47.84626,-54.09684
2020-08-27 00:59:01+00:00,226.6181,18.5,12.65,47.84626,-54.09684
2020-08-27 01:09:01+00:00,224.4098,18.5,12.65,47.84626,-54.09684
2020-08-27 01:19:01+00:00,220.5331,18.5,12.65,47.84626,-54.09684
2020-08-27 01:29:01+00:00,217.7881,18.5,12.65,47.84626,-54.09684
2020-08-27 01:39:01+00:00,217.2165,18.5,12.65,47.84626,-54.09684
2020-08-27 01:49:01+00:00,221.6748,18.5,12.65,47.84626,-54.09684
2020-08-27 01:59:01+00:00,227.3098,18.5,12.65,47.84626,-54.09684
2020-08-27 02:09:01+00:00,228.5748,18.5,12.65,47.84626,-54.09684
2020-08-27 02:19:01+00:00,227.4331,18.5,12.65,47.84626,-54.09684
2020-08-27 02:29:01+00:00,229.9847,18.5,12.65,47.84626,-54.09684
2020-08-27 02:39:01+00:00,234.2881,18.5,12.65,47.84626,-54.09684
2020-08-27 02:49:01+00:00,235.8615,18.5,12.65,47.84626,-54.09684
2020-08-27 02:59:01+00:00,237.5565,18.42,12.65,47.84626,-54.09684
2020-08-27 03:09:01+00:00,245.2964,18.4,12.65,47.84626,-54.09684
2020-08-27 03:19:01+00:00,252.4414,18.4,12.57,47.84626,-54.09684
2020-08-27 03:29:01+00:00,255.3781,18.3,12.57,47.84626,-54.09684
2020-08-27 03:39:01+00:00,257.0347,18.23,12.57,47.84626,-54.09684
2020-08-27 03:49:01+00:00,267.1097,18.22,12.57,47.84626,-54.09684
2020-08-27 03:59:01+00:00,277.0881,18.36,12.57,47.84626,-54.09684
2020-08-27 04:09:01+00:00,281.4531,18.4,12.57,47.84626,-54.09684
2020-08-27 04:19:01+00:00,285.6664,18.4,12.57,47.84626,-54.09684
2020-08-27 04:29:01+00:00,296.3897,18.4,12.57,47.84626,-54.09684
2020-08-27 04:39:01+00:00,300.3764,18.4,12.57,47.84626,-54.09684
2020-08-27 04:49:01+00:00,297.8714,18.4,12.57,47.84626,-54.09684
2020-08-27 04:59:01+00:00,300.6746,18.38,12.57,47.84626,-54.09684
2020-08-27 05:09:01+00:00,311.743,18.39,12.57,47.84626,-54.09684
2020-08-27 05:19:01+00:00,313.478,18.4,12.57,47.84626,-54.09684
2020-08-27 05:29:01+00:00,310.098,18.4,12.57,47.84626,-54.09684
2020-08-27 05:39:01+00:00,315.0964,18.4,12.57,47.84626,-54.09684
2020-08-27 05:49:01+00:00,321.3214,18.4,12.57,47.84626,-54.09684
2020-08-27 05:59:01+00:00,317.5946,18.4,12.57,47.84626,-54.09684
2020-08-27 06:09:01+00:00,316.328,18.4,12.57,47.84626,-54.09684
2020-08-27 06:19:01+00:00,322.7196,18.4,12.57,47.84626,-54.09684
2020-08-27 06:29:01+00:00,324.1312,18.4,12.57,47.84626,-54.09684
2020-08-27 06:39:01+00:00,322.1063,18.4,12.57,47.84626,-54.09684
2020-08-27 06:49:01+00:00,327.2247,18.4,12.57,47.84626,-54.09684
2020-08-27 06:59:01+00:00,330.6380000000001,18.4,12.57,47.84626,-54.09684
2020-08-27 07:09:01+00:00,326.293,18.4,12.57,47.84626,-54.09684
2020-08-27 07:19:01+00:00,323.6879,18.4,12.57,47.84626,-54.09684
2020-08-27 07:29:01+00:00,325.5397,18.4,12.57,47.84626,-54.09684
2020-08-27 07:39:01+00:00,324.903,18.3,12.57,47.84626,-54.09684
2020-08-27 07:49:01+00:00,319.3947,18.33,12.57,47.84626,-54.09684
2020-08-27 07:59:01+00:00,315.7563,18.38,12.57,47.84626,-54.09684
2020-08-27 08:09:01+00:00,314.9514,18.39,12.57,47.84626,-54.09684
2020-08-27 08:19:01+00:00,311.548,18.39,12.57,47.84626,-54.09684
2020-08-27 08:29:01+00:00,307.2164,18.38,12.57,47.84626,-54.09684
2020-08-27 08:39:01+00:00,299.6364,18.39,12.57,47.84626,-54.09684
2020-08-27 08:49:01+00:00,294.5247,18.4,12.57,47.84626,-54.09684
2020-08-27 08:59:01+00:00,289.2997,18.4,12.57,47.84626,-54.09684
2020-08-27 09:09:01+00:00,284.1647,18.4,12.57,47.84626,-54.09684
2020-08-27 09:19:01+00:00,274.6931,18.4,12.65,47.84626,-54.09684
2020-08-27 09:29:01+00:00,266.6298,18.4,12.65,47.84626,-54.09684
2020-08-27 09:39:01+00:00,261.5497,18.4,12.65,47.84626,-54.09684
2020-08-27 09:49:01+00:00,256.5931,18.4,12.65,47.84626,-54.09684
2020-08-27 09:59:01+00:00,247.8848,18.43,12.65,47.84626,-54.09684
2020-08-27 10:09:01+00:00,243.3181,18.44,12.65,47.84626,-54.09684
2020-08-27 10:19:01+00:00,242.1681,18.48,13.37,47.84626,-54.09684
2020-08-27 10:29:01+00:00,238.4164,18.47,13.37,47.84626,-54.09684
2020-08-27 10:39:01+00:00,235.1314,18.5,13.37,47.84626,-54.09684
2020-08-27 10:49:01+00:00,236.2147,18.5,13.37,47.84626,-54.09684
2020-08-27 10:59:01+00:00,237.7814,18.5,13.37,47.84626,-54.09684
2020-08-27 11:09:01+00:00,234.7598,18.5,13.37,47.84626,-54.09684
2020-08-27 11:19:01+00:00,232.7531,18.5,13.76,47.84626,-54.09684
2020-08-27 11:29:01+00:00,235.3414,18.5,13.76,47.84626,-54.09684
2020-08-27 11:39:01+00:00,235.7014,18.5,13.76,47.84626,-54.09684
2020-08-27 11:49:01+00:00,232.3631,18.5,13.76,47.84626,-54.09684
2020-08-27 11:59:01+00:00,232.7264,18.59,13.76,47.84626,-54.09684
2020-08-27 12:09:01+00:00,238.9348,18.58,13.76,47.84626,-54.09684
2020-08-27 12:19:01+00:00,241.9531,18.5,14.24,47.84626,-54.09684
2020-08-27 12:29:01+00:00,240.2931,18.42,14.24,47.84626,-54.09684
2020-08-27 12:39:01+00:00,243.558,18.47,14.24,47.84626,-54.09684
2020-08-27 12:49:01+00:00,250.5614,18.4,14.24,47.84626,-54.09684
2020-08-27 12:59:01+00:00,251.3947,18.4,14.24,47.84626,-54.09684
2020-08-27 13:09:01+00:00,246.7447,18.4,14.24,47.84626,-54.09684
2020-08-27 13:19:01+00:00,248.8564,18.48,14.4,47.84626,-54.09684
2020-08-27 13:29:01+00:00,254.3747,18.44,14.4,47.84626,-54.09684
2020-08-27 13:39:01+00:00,253.6064,18.4,14.4,47.84626,-54.09684
2020-08-27 13:49:01+00:00,251.6064,18.42,14.4,47.84626,-54.09684
2020-08-27 13:59:01+00:00,254.0614,18.4,14.4,47.84626,-54.09684
2020-08-27 14:09:01+00:00,257.1781,18.2,14.4,47.84626,-54.09684
2020-08-27 14:19:01+00:00,257.6281,17.95,14.32,47.84626,-54.09684
2020-08-27 14:29:01+00:00,260.7014,17.9,14.32,47.84626,-54.09684
2020-08-27 14:39:01+00:00,264.0731,18.0,14.32,47.84626,-54.09684
2020-08-27 14:49:01+00:00,268.1881,17.99,14.32,47.84626,-54.09684
2020-08-27 14:59:01+00:00,271.3048,17.9,14.32,47.84626,-54.09684
2020-08-27 15:09:01+00:00,276.9281,17.8,14.32,47.84626,-54.09684
2020-08-27 15:19:01+00:00,280.5297,17.8,14.4,47.84626,-54.09684
2020-08-27 15:29:01+00:00,282.368,17.82,14.4,47.84626,-54.09684
2020-08-27 15:39:01+00:00,287.2297,17.9,14.4,47.84626,-54.09684
2020-08-27 15:49:01+00:00,296.2014,17.9,14.4,47.84626,-54.09684
2020-08-27 15:59:01+00:00,301.5497,17.9,14.4,47.84626,-54.09684
2020-08-27 16:09:01+00:00,306.428,17.9,14.4,47.84626,-54.09684
2020-08-27 16:19:01+00:00,313.5996,17.92,14.32,47.84626,-54.09684
2020-08-27 16:29:01+00:00,322.3347,17.94,14.32,47.84626,-54.09684
2020-08-27 16:39:01+00:00,329.3214,17.96,14.32,47.84626,-54.09684
2020-08-27 16:49:01+00:00,335.3697,17.97,14.32,47.84626,-54.09684
2020-08-27 16:59:01+00:00,344.73800000000006,17.92,14.32,47.84626,-54.09684
2020-08-27 17:09:01+00:00,349.1063,17.9,14.32,47.84626,-54.09684
2020-08-27 17:19:01+00:00,350.3346,17.9,14.24,47.84626,-54.09684
2020-08-27 17:29:01+00:00,354.5913,17.9,14.24,47.84626,-54.09684
2020-08-27 17:39:01+00:00,360.8896,17.8,14.24,47.84626,-54.09684
2020-08-27 17:49:01+00:00,362.32300000000004,17.8,14.24,47.84626,-54.09684
2020-08-27 17:59:01+00:00,362.4947,17.8,14.24,47.84626,-54.09684
2020-08-27 18:09:01+00:00,366.5463,17.9,14.24,47.84626,-54.09684
2020-08-27 18:19:01+00:00,370.7629,18.06,14.0,47.84626,-54.09684
2020-08-27 18:29:01+00:00,369.9562,18.2,14.0,47.84626,-54.09684
2020-08-27 18:39:01+00:00,370.6346,18.23,14.0,47.84626,-54.09684
2020-08-27 18:49:01+00:00,373.3646,18.25,14.0,47.84626,-54.09684
2020-08-27 18:59:01+00:00,374.36300000000006,18.26,14.0,47.84626,-54.09684
2020-08-27 19:09:01+00:00,372.9078,18.21,14.0,47.84626,-54.09684
2020-08-27 19:19:01+00:00,371.7662,18.2,13.76,47.84626,-54.09684
2020-08-27 19:29:01+00:00,371.3113,18.2,13.76,47.84626,-54.09684
2020-08-27 19:39:01+00:00,370.5796,18.29,13.76,47.84626,-54.09684
2020-08-27 19:49:01+00:00,368.788,18.3,13.76,47.84626,-54.09684
2020-08-27 19:59:01+00:00,367.3063,18.33,13.76,47.84626,-54.09684
2020-08-27 20:09:01+00:00,367.718,18.31,13.76,47.84626,-54.09684
2020-08-27 20:19:01+00:00,363.6096,18.3,13.68,47.84626,-54.09684
2020-08-27 20:29:01+00:00,355.7612,18.3,13.68,47.84626,-54.09684
2020-08-27 20:39:01+00:00,353.13800000000015,18.3,13.68,47.84626,-54.09684
2020-08-27 20:49:01+00:00,351.5779,18.3,13.68,47.84626,-54.09684
2020-08-27 20:59:01+00:00,343.7996,18.3,13.68,47.84626,-54.09684
2020-08-27 21:09:01+00:00,336.0997,18.3,13.68,47.84626,-54.09684
2020-08-27 21:19:01+00:00,330.5146,18.3,13.37,47.84626,-54.09684
2020-08-27 21:29:01+00:00,323.313,18.3,13.37,47.84626,-54.09684
2020-08-27 21:39:01+00:00,315.7563,18.3,13.37,47.84626,-54.09684
2020-08-27 21:49:01+00:00,309.973,18.3,13.37,47.84626,-54.09684
2020-08-27 21:59:01+00:00,303.848,18.3,13.37,47.84626,-54.09684
2020-08-27 22:09:01+00:00,296.723,18.3,13.37,47.84626,-54.09684
2020-08-27 22:19:01+00:00,290.8497,18.29,13.13,47.84626,-54.09684
2020-08-27 22:29:01+00:00,285.4897,18.23,13.13,47.84626,-54.09684
2020-08-27 22:39:01+00:00,281.8814,18.2,13.13,47.84626,-54.09684
2020-08-27 22:49:01+00:00,280.1714,18.2,13.13,47.84626,-54.09684
2020-08-27 22:59:01+00:00,277.1931,18.2,13.13,47.84626,-54.09684
2020-08-27 23:09:01+00:00,273.618,18.19,13.13,47.84626,-54.09684
2020-08-27 23:19:01+00:00,271.6014,18.15,12.81,47.84626,-54.09684
2020-08-27 23:29:01+00:00,270.6131,18.1,12.81,47.84626,-54.09684
2020-08-27 23:39:01+00:00,266.9497,18.1,12.81,47.84626,-54.09684
2020-08-27 23:49:01+00:00,262.3564,18.1,12.81,47.84626,-54.09684
2020-08-27 23:59:01+00:00,260.3298,18.1,12.81,47.84626,-54.09684
